Lapse_Rate
7.8 7.5 7.4 7.4 7.4 7.4 6.9 7.3 7.7 7.3 7.0 7.7 7.9 7.9 7.7 7.4 7.3 7.1 6.8 6.9 6.9 6.6 6.1 5.7 5.4 5.3 5.2 5.1 5.1 5.1 5.1 5.2 5.3 5.4 5.4 5.5 5.5 5.5 5.5 5.6 5.5 5.6 5.6 5.6 5.7 5.7 5.8 5.9 6.0
8.0 7.8 7.6 7.4 7.4 7.3 7.6 7.4 7.3 6.8 6.7 7.3 7.8 8.0 7.8 7.7 7.6 7.4 7.2 7.1 7.0 6.7 6.3 6.0 5.7 5.5 5.3 5.2 5.2 5.2 5.3 5.4 5.5 5.6 5.6 5.6 5.7 5.8 5.8 5.7 5.8 5.8 5.8 5.8 5.9 6.0 6.1 6.1 6.1
8.3 8.0 7.8 7.5 7.4 7.1 7.2 6.9 6.8 7.2 7.4 7.6 7.4 7.8 7.9 7.7 7.5 7.3 7.2 7.2 7.1 6.9 6.5 6.3 6.1 5.8 5.7 5.6 5.6 5.6 5.6 5.6 5.6 5.7 5.7 5.8 5.9 5.9 5.8 5.8 5.8 5.8 5.9 6.0 6.1 6.1 6.0 6.1 6.2
8.2 8.1 7.9 7.4 7.2 6.9 7.1 7.1 7.7 7.8 7.4 7.5 8.0 8.0 7.9 7.9 7.8 7.5 7.1 7.2 7.0 6.7 6.5 6.1 5.9 5.9 5.8 5.8 5.8 5.8 5.7 5.6 5.7 5.7 5.8 5.8 5.8 5.7 5.7 5.7 5.7 5.8 5.9 5.8 5.8 5.9 6.1 6.2 6.2
8.2 8.1 7.7 7.1 7.5 7.7 7.2 7.0 7.1 7.0 7.5 7.0 7.3 8.3 8.0 7.8 7.9 7.7 7.2 7.4 7.2 6.9 6.6 6.4 6.2 5.9 5.9 5.8 5.7 5.7 5.7 5.8 5.8 5.7 5.6 5.6 5.6 5.6 5.7 5.8 5.9 5.9 6.0 6.0 6.1 6.2 6.2 6.2 6.3
8.2 7.9 7.6 7.7 7.7 7.9 7.1 6.7 6.8 6.8 6.6 6.9 7.5 8.1 8.1 8.2 8.2 7.8 7.5 7.2 6.9 7.0 7.0 6.9 6.6 6.2 6.1 5.9 5.9 5.8 5.8 5.8 5.7 5.6 5.7 5.7 5.6 5.6 5.6 5.6 5.6 5.8 5.9 6.1 6.0 6.1 6.1 6.1 6.2
8.0 7.8 8.0 8.1 7.9 8.4 8.1 7.3 7.0 6.6 7.1 6.9 6.1 7.5 8.0 8.2 8.0 8.0 7.6 7.5 7.5 7.4 7.3 7.1 6.9 6.7 6.4 6.0 6.0 6.0 5.9 5.9 5.8 5.7 5.8 5.8 5.5 5.4 5.3 5.4 5.6 5.6 5.7 5.5 5.6 5.8 5.9 5.8 5.9
8.0 7.9 8.2 8.2 7.9 8.4 8.5 8.5 7.6 7.3 7.4 7.0 6.3 7.1 7.5 8.2 8.0 7.9 8.0 7.9 7.5 7.2 7.4 7.2 6.8 6.6 6.3 6.1 6.1 6.1 6.0 5.9 5.8 5.7 5.7 5.6 5.3 5.4 5.7 5.6 5.6 5.7 5.9 5.9 6.1 6.2 6.4 6.5 6.2
7.9 8.1 8.7 8.8 8.5 8.2 8.5 8.1 7.5 7.6 7.4 6.8 7.1 6.9 7.5 7.8 8.3 8.3 8.1 7.7 7.3 7.2 7.2 7.0 6.7 6.4 6.4 6.3 6.1 6.1 6.0 6.0 5.8 5.7 5.7 5.6 5.5 5.7 5.7 5.8 5.9 5.9 6.0 6.2 6.5 6.9 7.1 6.8 6.4
8.2 8.4 8.8 8.9 8.9 8.6 8.1 8.0 8.1 8.2 8.3 7.9 7.8 7.9 7.8 8.2 8.2 8.1 7.9 7.4 7.2 7.0 6.9 6.7 6.6 6.4 6.4 6.4 6.2 6.1 6.0 5.8 5.5 5.7 5.6 5.6 5.5 5.7 5.7 5.5 5.7 6.1 6.0 6.1 6.4 6.4 6.1 6.0 6.0
8.4 8.6 8.7 9.2 9.0 8.6 8.6 8.3 7.9 7.7 7.9 7.3 7.5 7.7 8.3 8.2 7.9 8.0 7.7 7.4 7.0 6.7 6.8 6.6 6.2 6.2 6.3 6.3 6.2 6.0 5.8 5.7 5.8 5.6 5.7 5.4 5.1 5.0 4.9 5.0 5.2 5.7 5.6 5.8 6.0 6.0 5.8 5.7 5.6
8.2 8.9 8.7 8.8 9.1 8.8 8.7 8.2 8.3 8.0 7.9 7.8 7.6 8.0 7.9 7.8 7.7 7.5 7.2 7.3 7.3 7.4 7.5 7.2 6.9 6.7 6.5 6.3 6.1 6.0 6.1 6.0 5.7 5.7 5.4 4.7 4.7 4.6 4.6 4.9 5.5 5.4 5.3 5.5 6.0 5.9 5.4 5.4 5.6
8.4 8.8 8.9 9.0 9.3 9.1 8.3 8.4 8.0 7.5 7.6 8.1 8.0 8.0 8.1 8.0 7.6 7.6 7.6 8.2 8.0 7.8 7.9 7.8 7.7 7.1 6.2 5.7 5.5 5.3 5.3 5.2 5.0 4.8 4.7 4.7 4.7 4.5 4.7 5.1 5.3 5.5 5.5 5.5 5.6 5.4 5.1 5.2 5.3
8.1 8.4 8.9 9.3 9.3 8.9 8.8 8.4 8.4 8.1 7.7 7.7 7.7 7.9 8.1 8.1 8.0 7.6 7.9 8.0 7.9 7.5 7.3 7.1 6.1 5.2 5.1 5.0 4.9 4.9 4.8 4.9 4.8 4.7 4.6 4.7 4.6 4.8 5.0 5.1 5.2 5.3 5.2 5.3 5.4 5.5 5.4 5.4 5.5
7.7 8.0 8.7 9.4 9.3 9.0 8.8 8.5 8.3 7.9 7.4 7.3 7.1 7.6 7.7 7.7 7.5 6.8 7.1 6.6 5.8 5.7 5.6 5.4 5.4 5.6 5.2 4.9 4.9 4.6 4.7 4.7 4.6 4.5 4.7 4.8 4.7 4.7 4.8 4.9 5.1 5.2 5.2 5.2 5.3 5.3 5.3 5.4 5.3
7.9 8.1 8.6 9.1 9.1 9.1 9.0 8.3 7.6 7.8 7.4 7.4 7.2 7.8 7.7 7.7 6.9 6.1 5.8 5.7 5.4 5.5 5.5 5.5 5.7 5.6 4.8 4.8 4.9 5.0 5.1 4.6 4.6 4.6 4.7 4.7 4.7 4.9 4.8 4.9 4.9 5.1 5.2 5.2 5.3 5.4 5.3 5.2 5.0
7.8 8.0 8.7 9.2 9.4 9.4 9.0 8.9 8.3 8.2 7.7 7.4 7.7 7.2 7.4 7.1 6.3 6.0 6.1 6.2 6.2 6.1 6.0 5.9 5.6 5.1 4.9 5.2 5.2 5.1 4.8 4.7 4.7 4.8 4.9 5.1 5.2 5.2 5.2 5.2 5.1 5.0 4.9 5.0 5.2 5.0 4.9 4.9 5.0
8.3 8.6 9.1 9.2 8.9 9.0 8.9 8.6 8.2 7.5 7.7 7.4 7.6 7.6 7.4 7.2 6.3 6.2 6.3 6.5 6.4 6.2 6.0 5.4 5.0 5.1 5.1 5.2 5.1 4.9 5.0 4.9 4.7 4.8 4.9 5.0 5.4 5.4 5.3 5.1 4.8 4.9 4.9 4.8 4.7 4.7 4.8 4.9 5.2
8.5 8.7 8.9 9.5 8.8 8.8 8.5 7.6 7.1 7.1 7.4 7.9 7.8 7.5 7.3 6.9 6.4 6.5 6.4 6.5 6.1 5.8 5.5 5.0 4.8 4.7 5.2 5.2 5.2 4.9 4.7 4.5 4.8 4.9 4.9 5.0 5.1 5.3 5.1 4.8 4.7 4.7 4.7 4.8 4.8 4.9 5.0 5.1 5.2
8.7 8.7 9.1 8.9 8.6 8.6 8.0 6.9 6.6 6.6 6.8 6.7 6.8 7.0 6.6 6.6 6.6 6.8 6.5 6.2 5.8 5.7 5.2 5.0 5.0 4.6 4.8 4.7 4.7 4.7 4.7 4.8 4.9 4.8 4.8 4.8 5.0 5.0 4.8 4.8 4.8 4.9 5.0 5.1 5.2 5.2 5.3 5.4 5.5
8.7 8.9 9.3 9.1 8.5 7.9 8.5 6.4 6.3 6.1 6.1 6.2 6.2 6.2 6.4 6.5 6.4 6.4 6.4 5.9 5.7 5.6 5.2 5.4 5.3 5.0 4.8 4.7 4.6 4.5 4.7 4.6 4.6 4.7 4.9 5.0 5.1 4.8 4.8 4.9 4.9 5.0 5.1 5.3 5.4 5.5 5.5 5.7 6.0
9.3 9.4 9.3 9.0 9.0 8.5 8.1 5.6 5.7 5.9 6.5 6.2 6.3 6.7 6.6 6.4 6.5 6.3 6.2 6.1 5.6 5.5 5.4 5.2 5.0 4.7 4.6 4.6 4.5 4.6 4.8 4.8 5.0 5.2 5.2 5.0 4.8 4.8 4.9 4.9 5.0 5.2 5.3 5.4 5.5 5.6 5.8 6.2 6.2
8.9 8.9 9.0 9.2 9.0 9.1 8.0 7.1 5.5 6.0 6.4 6.7 7.2 6.7 6.6 6.7 6.7 6.4 6.2 5.6 5.2 5.2 4.9 4.9 4.8 4.7 4.5 4.4 4.6 4.8 4.8 5.0 5.2 5.2 5.0 4.9 4.8 4.8 4.9 5.1 5.4 5.5 5.7 5.8 5.8 6.0 6.2 6.3 6.3
8.9 8.9 8.8 8.9 8.9 8.1 7.8 7.6 5.8 6.5 6.5 6.6 6.4 6.6 6.9 6.5 6.3 6.1 5.7 5.2 4.9 4.8 4.9 4.9 4.7 4.4 4.4 4.6 4.7 4.8 5.1 5.3 5.2 5.0 4.9 4.8 4.9 5.0 5.3 5.6 5.8 5.9 5.9 6.2 6.4 6.2 6.2 6.1 6.0
9.0 9.0 8.7 7.9 7.7 6.9 7.3 7.5 6.2 6.2 6.4 6.5 6.7 6.6 6.4 6.3 6.1 5.7 5.4 5.0 4.7 4.8 4.7 4.7 4.5 4.3 4.4 4.5 4.4 5.0 5.1 5.1 4.9 4.7 4.7 4.8 5.1 5.5 5.8 6.0 6.1 6.3 6.5 6.6 6.4 6.2 6.0 5.9 5.7
9.2 9.0 9.0 7.8 7.1 7.1 7.5 6.3 6.2 6.0 6.2 6.2 6.3 6.5 6.4 6.1 5.9 5.6 5.0 4.7 4.6 4.6 4.6 4.0 3.8 3.7 4.2 4.4 4.7 4.9 4.9 4.7 4.6 4.6 4.8 5.0 5.4 5.8 6.0 6.2 6.4 6.6 6.6 6.4 6.2 6.1 5.9 5.9 5.9
9.2 9.2 9.2 9.1 7.5 7.0 6.4 6.0 5.9 5.8 6.1 6.3 6.5 6.3 5.8 6.0 5.8 5.2 4.8 4.4 4.5 4.3 4.0 3.9 3.7 3.9 4.3 4.8 4.8 4.9 4.8 4.6 4.8 4.9 5.1 5.5 5.9 6.2 6.3 6.6 6.7 6.6 6.4 6.1 6.1 5.9 5.9 6.0 6.0
8.9 9.0 9.2 9.2 7.8 6.2 6.6 6.2 6.2 6.2 6.2 6.3 6.2 6.0 6.1 5.7 5.5 5.1 4.4 4.4 4.5 4.1 3.6 3.7 4.1 4.3 4.9 4.9 4.8 4.7 4.7 4.6 4.8 5.0 5.6 6.1 6.2 6.5 6.8 6.8 6.6 6.5 6.2 6.1 6.0 5.9 5.9 5.9 5.9
9.0 9.1 9.0 8.9 8.6 6.7 6.1 5.8 6.0 6.3 6.4 6.2 6.1 6.0 5.9 5.8 5.4 4.9 4.6 4.5 4.4 4.1 3.6 3.6 4.0 4.7 5.0 4.8 4.7 4.6 4.7 4.7 5.0 5.6 6.2 6.3 6.6 6.9 6.8 6.6 6.5 6.4 6.2 6.0 6.0 6.0 5.8 5.7 5.7
8.6 8.7 9.1 8.8 8.5 7.8 6.5 5.3 5.8 6.0 5.9 6.0 6.0 5.9 5.7 5.5 5.2 5.0 4.8 4.6 4.3 4.2 3.7 4.2 4.9 5.1 4.9 4.9 4.7 4.7 4.7 5.0 5.7 6.4 6.4 6.7 6.9 6.8 6.6 6.5 6.4 6.3 6.1 6.0 6.0 5.9 5.6 5.5 5.6
Wind_Speed
11 11 2 3 4 5 3 6 5 7 6 6 4 7 8 4 2 2 7 11 19 13 16 17 17 16 16 15 15 14 14 14 14 14 14 15 17 17 17 18 18 18 18 18 18 18 18 19 19
11 3 4 2 4 4 5 4 8 9 10 3 7 3 7 4 4 11 7 11 18 17 16 16 17 16 16 15 14 14 14 14 14 15 15 16 16 17 18 18 18 18 17 17 18 18 19 19 19
7 2 3 4 4 1 3 3 7 6 12 10 2 7 4 3 8 7 14 14 18 15 16 17 17 17 16 15 14 15 15 15 15 15 15 16 16 17 17 17 16 16 16 16 17 17 17 17 18
3 4 4 4 4 3 3 4 11 16 10 8 2 8 5 6 8 9 16 19 16 13 16 16 16 16 16 15 15 15 15 16 15 15 15 15 15 15 16 15 14 15 14 16 17 18 17 17 17
3 3 3 4 4 4 6 1 3 3 12 8 11 3 4 4 16 19 17 17 16 13 17 16 16 16 15 16 16 16 15 15 14 14 14 14 13 12 13 15 14 15 14 15 16 19 18 19 19
3 3 3 2 3 7 5 9 3 8 8 11 6 3 2 8 16 15 16 14 19 14 17 16 17 16 16 16 16 15 14 14 13 13 12 11 10 10 8 12 12 13 14 14 17 17 18 17 20
4 3 4 4 4 3 6 17 20 8 7 9 7 5 3 5 14 15 15 16 16 17 17 18 18 16 15 15 15 15 14 14 12 10 8 5 8 7 6 9 11 11 12 13 15 18 15 16 18
4 4 3 3 5 5 5 3 14 10 1 11 13 7 5 8 16 16 15 13 11 15 16 17 19 16 14 13 14 13 12 11 10 6 1 4 5 14 13 8 9 11 13 14 18 18 18 18 18
4 3 4 5 6 6 2 6 4 4 9 5 3 9 13 23 20 18 15 12 10 8 10 16 16 15 15 13 11 11 10 9 11 14 15 15 12 14 19 16 17 13 16 15 16 17 17 19 20
4 3 7 7 7 5 9 5 11 6 8 6 11 17 23 23 18 19 15 13 10 9 7 10 13 14 14 9 9 7 6 8 11 14 15 15 15 15 16 19 16 15 16 17 18 18 16 18 20
3 6 6 14 11 12 11 9 8 11 1 10 18 24 20 22 18 15 14 17 16 13 9 9 11 14 11 8 8 6 7 8 11 13 12 13 14 16 18 19 16 17 16 15 17 16 18 18 18
3 9 6 10 7 6 7 8 5 4 4 14 20 23 22 18 17 15 14 14 12 13 11 11 14 10 8 12 10 9 7 9 8 9 10 12 10 10 12 14 12 15 15 16 16 14 15 17 17
7 7 5 8 7 12 18 9 5 5 12 20 21 20 20 18 16 14 14 12 12 10 10 9 13 12 16 15 14 14 13 8 7 8 11 11 10 9 14 14 12 14 17 15 12 12 12 12 14
5 4 7 7 7 16 19 6 8 6 17 17 18 18 18 17 15 12 11 12 14 14 11 10 10 12 13 12 12 10 9 9 8 7 10 11 12 12 12 12 12 15 16 15 12 8 8 9 12
4 6 7 5 5 6 19 4 9 20 18 18 14 14 11 9 12 11 13 15 15 12 12 11 9 13 13 11 11 11 9 8 10 6 10 10 13 13 13 11 11 13 16 17 16 13 13 9 12
5 4 4 3 3 6 3 4 6 18 22 15 12 14 16 19 20 18 17 17 14 13 12 10 12 11 10 10 11 9 9 9 7 4 6 10 11 13 13 10 9 15 17 13 11 5 4 4 4
6 3 3 8 1 4 6 4 4 19 20 19 15 16 18 19 21 18 17 15 14 12 11 10 8 6 8 10 9 8 8 7 6 1 6 7 7 11 9 9 11 15 13 11 7 3 2 3 4
5 1 5 7 5 18 17 10 13 16 23 19 16 18 16 16 18 18 18 16 14 12 11 11 8 8 9 9 8 9 7 12 12 4 4 1 5 5 6 7 10 12 8 5 4 3 3 2 3
4 5 5 2 9 14 13 15 11 11 18 18 17 15 16 16 14 17 15 13 12 10 11 9 11 9 7 5 3 3 3 4 6 8 2 4 2 2 2 5 7 9 4 4 4 3 3 3 4
8 8 6 18 18 19 19 16 14 12 10 16 17 15 15 15 15 13 12 11 10 8 8 10 10 9 6 3 3 2 3 2 2 6 12 11 6 7 3 5 6 8 3 6 4 3 3 2 3
6 6 1 9 18 17 20 11 10 8 13 14 13 14 13 14 15 11 11 9 8 10 8 9 7 7 6 9 6 5 4 4 4 4 5 13 17 11 6 6 8 8 5 4 4 3 4 2 2
2 2 7 19 6 5 3 4 3 6 9 10 10 12 12 13 13 12 10 8 8 7 7 7 7 7 7 10 5 6 3 3 2 2 3 11 15 11 15 10 11 11 9 5 4 4 1 1 2
6 2 3 8 5 6 4 7 4 6 6 6 7 11 11 10 11 11 9 8 7 7 6 5 6 6 6 6 6 4 5 2 2 3 6 6 14 17 16 16 14 10 8 7 4 4 4 1 1
1 4 6 4 4 4 2 6 4 5 7 8 9 10 13 11 10 9 7 8 6 6 5 4 5 4 6 5 6 6 6 5 5 5 4 4 3 8 13 15 12 12 9 5 3 3 3 2 2
6 6 3 4 4 3 1 7 2 6 13 12 13 11 11 11 10 9 9 7 6 5 4 3 6 5 4 6 6 6 5 6 6 5 4 5 4 3 5 9 9 8 10 8 6 4 3 3 3
0 7 5 5 5 3 7 3 2 6 10 10 11 12 10 8 9 8 8 7 6 5 4 5 5 3 4 5 5 5 6 4 3 4 3 4 3 4 9 11 11 11 11 10 8 3 3 4 5
2 1 4 6 5 5 2 4 3 7 8 10 11 11 8 8 9 10 8 6 5 3 5 4 4 2 3 4 5 6 6 6 5 6 5 3 6 7 11 13 9 11 10 8 6 2 5 5 6
4 2 5 4 4 3 2 5 4 11 10 9 10 8 7 9 10 9 6 6 3 3 4 6 4 2 4 5 5 4 5 5 6 6 6 6 9 9 11 10 9 9 9 7 1 4 6 6 8
5 4 4 4 4 4 5 3 4 10 10 10 8 8 11 10 10 8 6 5 4 4 5 5 3 6 6 5 4 5 5 5 7 5 6 7 10 11 8 8 6 6 6 3 4 6 7 10 11
5 3 4 4 2 3 4 3 3 10 10 9 8 9 10 11 11 8 6 6 4 4 5 4 4 6 5 3 4 5 6 6 6 7 6 12 6 14 10 9 7 6 5 3 6 7 10 12 12
Wind_Direction
133 151 93 45 56 68 335 309 308 313 331 353 357 71 111 46 44 177 94 122 130 127 135 135 134 131 127 120 113 109 103 94 88 80 72 67 59 54 48 42 36 32 26 22 18 15 14 13 11
145 126 43 65 85 63 286 240 252 282 320 304 75 89 39 64 71 113 102 126 124 122 120 130 132 129 122 112 109 101 94 87 81 72 70 65 59 52 46 40 34 29 24 19 16 14 12 10 9
166 96 87 105 109 158 256 299 268 315 321 296 233 51 61 72 92 127 125 128 122 114 122 132 130 125 116 109 103 96 89 84 75 70 64 63 60 55 47 39 33 27 22 19 16 12 11 12 11
149 24 20 68 54 262 244 297 19 351 350 47 342 71 70 360 148 123 127 121 110 102 112 122 124 118 109 107 100 95 90 82 76 71 66 64 62 57 49 41 35 27 24 22 22 19 16 13 7
41 66 66 103 185 223 232 181 224 64 300 303 8 93 60 36 114 126 123 122 118 108 114 120 113 107 107 103 99 95 90 87 84 80 73 68 63 59 45 40 35 29 27 23 20 15 13 7 5
38 108 87 186 229 210 235 205 167 244 306 7 21 34 43 127 128 115 117 112 113 109 109 119 114 105 103 100 99 97 93 90 89 82 76 70 56 42 35 27 24 22 22 13 9 1 9 4 8
132 90 198 197 253 257 208 204 196 110 89 26 306 347 125 148 108 115 111 108 107 99 91 89 101 108 107 104 103 101 95 89 83 75 73 59 37 22 358 357 3 7 6 2 359 8 9 12 2
121 96 209 211 206 259 241 40 97 126 203 180 194 165 185 153 123 111 107 108 103 102 105 107 111 118 117 116 116 112 102 89 74 52 17 0 342 9 10 349 348 356 344 0 7 7 10 2 359
127 79 241 244 161 250 251 107 48 96 133 110 288 149 133 134 130 115 114 113 116 124 126 130 135 141 137 133 127 113 100 84 75 61 55 54 37 25 23 13 11 17 24 21 10 7 4 1 0
121 156 233 211 189 240 68 138 170 145 138 68 72 115 122 128 132 134 140 139 145 154 149 150 152 158 153 151 130 109 100 87 78 66 58 48 38 27 22 18 29 33 28 17 9 5 6 6 359
184 220 236 278 204 222 154 144 169 128 71 166 166 142 132 137 147 144 151 155 164 162 158 164 170 167 158 142 131 134 126 92 72 58 48 47 37 27 22 25 33 23 15 17 10 8 6 5 1
240 239 255 270 243 258 108 145 90 121 272 159 146 140 144 150 152 157 162 162 153 160 165 161 168 152 147 142 133 130 120 100 68 45 54 44 36 28 23 28 30 14 11 7 10 14 5 4 0
187 286 284 286 34 99 85 51 80 95 113 123 138 147 155 163 163 164 166 150 140 142 138 124 130 137 129 113 110 107 112 84 55 60 44 47 43 32 23 21 18 8 6 10 20 12 2 0 355
251 256 283 300 88 122 112 145 110 76 124 131 146 161 162 171 159 148 146 119 117 116 117 122 109 101 93 93 91 94 76 70 56 53 48 69 58 39 26 18 13 360 8 22 15 1 356 359 357
253 355 343 354 145 129 126 58 150 146 144 141 159 167 158 143 127 127 107 111 115 110 106 91 84 80 86 88 82 72 66 46 41 70 73 78 59 44 35 29 13 6 12 12 5 1 13 7 353
11 56 7 285 158 161 163 100 107 159 144 132 106 96 85 83 91 96 100 104 101 102 94 86 94 86 89 81 75 66 43 31 28 74 82 70 59 47 42 28 13 8 10 4 358 2 358 352 345
12 266 279 317 21 83 71 344 321 133 111 101 102 99 89 90 91 92 92 95 93 87 84 77 65 71 79 73 63 43 16 5 342 64 69 63 58 51 54 33 13 8 4 2 357 341 354 337 336
243 309 327 267 53 90 80 64 68 99 104 109 94 87 88 88 90 93 89 84 79 79 74 72 64 47 50 42 28 20 6 358 1 62 87 50 57 52 52 35 16 5 359 348 346 326 329 301 330
222 223 264 176 141 68 74 63 54 77 98 96 91 91 94 90 87 82 81 81 79 64 68 61 59 41 41 27 6 356 334 349 10 58 325 308 350 355 40 36 8 355 345 325 317 305 324 310 340
247 247 250 62 86 89 83 63 62 66 84 101 112 111 112 105 88 82 80 74 71 73 65 62 57 45 36 22 354 359 346 354 23 8 18 9 328 324 16 17 345 343 337 338 327 332 317 303 16
236 196 55 107 92 117 93 54 66 62 91 98 101 107 105 112 103 97 89 79 73 67 64 63 53 40 31 28 23 5 17 14 5 2 358 11 29 39 55 359 348 343 343 328 313 311 355 322 313
119 176 128 147 135 189 142 129 57 105 89 92 110 114 119 112 108 109 105 90 90 78 66 60 49 36 31 24 33 42 29 11 330 317 327 5 21 17 12 2 355 345 345 341 328 353 343 24 308
221 172 161 167 150 111 77 88 170 145 113 126 124 118 115 114 119 114 111 109 89 80 76 65 47 35 18 25 39 47 38 1 313 345 3 360 5 7 6 359 360 357 351 350 6 10 358 300 261
136 76 29 54 120 64 298 117 218 179 160 132 112 107 115 121 113 111 111 99 90 78 71 58 42 15 18 37 41 45 42 9 5 352 359 347 341 344 358 355 354 349 341 344 319 319 333 321 266
75 64 358 339 30 123 1 56 152 149 146 149 133 123 127 128 130 129 113 105 96 87 59 51 31 27 31 59 46 36 22 12 4 358 347 351 336 324 323 339 338 331 333 330 299 309 308 296 280
120 147 158 227 170 169 24 88 163 99 103 114 124 134 137 136 134 119 119 115 106 93 57 51 37 55 54 60 40 23 21 20 10 354 338 337 320 308 315 332 328 327 332 326 322 288 290 270 277
308 33 191 115 52 80 115 87 77 120 120 123 136 139 151 127 124 118 110 111 107 80 70 55 58 72 43 50 37 24 21 25 6 353 349 319 315 314 322 319 312 316 315 329 313 318 297 284 282
101 232 41 6 133 105 168 179 191 176 170 159 150 153 123 121 114 117 125 125 118 70 53 41 89 54 37 55 37 29 12 15 1 351 337 326 315 313 316 309 309 305 308 323 4 311 296 291 303
21 19 45 110 108 143 166 250 214 173 159 161 163 151 142 133 133 136 134 123 96 50 51 96 67 49 49 70 41 19 5 1 350 337 326 319 315 314 308 305 304 300 313 329 337 311 302 306 307
82 105 104 104 303 62 103 278 14 125 138 139 148 142 137 134 140 142 131 121 81 57 70 90 61 55 76 71 37 10 7 356 346 335 326 328 313 318 314 314 307 317 332 6 326 311 316 315 311